This demonstration page uses our WeatherBlox Daily Observations layout. Learn more.

Left ArrowRight Arrow

40.92945, -100.16068

Hourly Observations for February 27, 2022

Temp ( °F °C ) Dew Point ( °F °C ) Humidity (%) Winds ( mph kmh ) Pressure ( in mb ) Visibility ( mi km ) Precip ( " mm )
12:15 am 00:15 Clear 14 -10 2 -16.9 57 57 WNW 6 9 30.54 1034 10 16 0.00 0.00
12:35 am 00:35 Clear 12 -11.1 0 -17.9 58 58 WNW 6 9 30.55 1035 10 16 0.00 0.00
12:55 am 00:55 Clear 13 -10.4 2 -16.8 60 60 NW 3 6 30.55 1034 10 16 0.00 0.00
1:15 am 01:15 Clear 11 -11.9 0 -18 61 61 WNW 5 7 30.56 1035 10 16 0.00 0.00
1:30 am 01:30 Clear 11 -11.8 1 -17.5 63 63 WNW 6 9 30.56 1035 10 16 0.00 0.00
1:55 am 01:55 Clear 10 -12.1 1 -17.5 64 64 NW 7 11 30.57 1035 10 16 0.00 0.00
2:15 am 02:15 Clear 11 -11.6 2 -16.7 66 66 NW 7 11 30.56 1035 10 16 0.00 0.00
2:35 am 02:35 Clear 11 -11.4 2 -16.5 66 66 NW 5 7 30.56 1035 10 16 0.00 0.00
2:55 am 02:55 Clear 11 -11.5 2 -16.4 67 67 Calm 30.56 1035 10 16 0.00 0.00
3:15 am 03:15 Clear 12 -11.3 4 -15.8 70 70 WNW 7 11 30.56 1035 10 16 0.00 0.00
3:35 am 03:35 Clear 12 -11.3 4 -15.7 70 70 W 6 9 30.55 1034 10 16 0.00 0.00
3:55 am 03:55 Clear 13 -10.3 6 -14.6 71 71 WNW 9 15 30.53 1034 10 16 0.00 0.00
4:15 am 04:15 Clear 13 -10.5 6 -14.7 72 72 WNW 8 13 30.53 1034 10 16 0.00 0.00
4:35 am 04:35 Clear 11 -11.6 4 -15.5 73 73 WNW 7 11 30.54 1034 10 16 0.00 0.00
4:55 am 04:55 Clear 11 -11.6 4 -15.3 74 74 WNW 6 9 30.54 1034 10 16 0.00 0.00
5:15 am 05:15 Clear 10 -12.1 4 -15.5 76 76 WNW 10 17 30.55 1034 10 16 0.00 0.00
5:35 am 05:35 Clear 11 -11.4 6 -14.7 77 77 WNW 9 15 30.55 1034 10 16 0.00 0.00
5:55 am 05:55 Clear 12 -11 6 -14.2 78 78 WNW 10 17 30.54 1034 10 16 0.00 0.00
6:15 am 06:15 Clear 12 -11.1 6 -14.3 77 77 WNW 8 13 30.54 1034 10 16 0.00 0.00
6:35 am 06:35 Clear 12 -11 6 -14.2 78 78 W 5 7 30.54 1034 10 16 0.00 0.00
6:55 am 06:55 Clear 10 -12 6 -14.7 81 81 WNW 5 7 30.54 1034 10 16 0.00 0.00
7:15 am 07:15 Clear 9 -12.6 4 -15.3 80 80 WNW 8 13 30.54 1034 10 16 0.00 0.00
7:35 am 07:35 Sunny 10 -12.5 4 -15.3 80 80 WNW 6 9 30.54 1034 10 16 0.00 0.00
7:55 am 07:55 Sunny 14 -10 8 -13.2 78 78 WNW 7 11 30.52 1034 10 16 0.00 0.00
8:15 am 08:15 Sunny 16 -8.7 9 -12.9 72 72 WNW 6 9 30.51 1033 10 16 0.00 0.00
8:35 am 08:35 Sunny 19 -7.1 10 -12.4 66 66 WNW 7 11 30.49 1033 10 16 0.00 0.00
8:55 am 08:55 Sunny 22 -5.7 10 -12 62 62 WNW 7 11 30.48 1032 10 16 0.00 0.00
9:15 am 09:15 Sunny 25 -3.9 11 -11.7 55 55 W 6 9 30.46 1031 10 16 0.00 0.00
9:35 am 09:35 Sunny 28 -2.2 11 -11.4 50 50 WNW 5 7 30.44 1031 10 16 0.00 0.00
9:55 am 09:55 Sunny 33 0.6 13 -10.8 43 43 W 7 11 30.40 1030 10 16 0.00 0.00
10:15 am 10:15 Sunny 41 5 12 -11.1 30 30 W 12 19 30.35 1028 10 16 0.00 0.00
10:35 am 10:35 Sunny 44 6.8 11 -11.9 25 25 W 10 17 30.32 1027 10 16 0.00 0.00
10:55 am 10:55 Sunny 46 8 8 -13.3 21 21 W 16 26 30.30 1026 10 16 0.00 0.00
11:15 am 11:15 Sunny 47 8.2 8 -13.6 20 20 WSW 15 24 30.30 1026 10 16 0.00 0.00
11:35 am 11:35 Sunny 48 8.9 8 -13.5 19 19 WSW 14 22 30.28 1025 10 16 0.00 0.00
11:55 am 11:55 Sunny 49 9.6 8 -13.5 18 18 WSW 12 19 30.26 1025 10 16 0.00 0.00
12:15 pm 12:15 Sunny 50 10.2 8 -13.2 18 18 WSW 10 17 30.25 1024 10 16 0.00 0.00
12:35 pm 12:35 Sunny 52 11 8 -13.5 17 17 SW 14 22 30.23 1024 10 16 0.00 0.00
12:55 pm 12:55 Sunny 54 12 7 -13.8 15 15 W 15 24 30.22 1023 10 16 0.00 0.00
1:15 pm 13:15 Sunny 55 12.8 5 -14.9 13 13 W 10 17 30.21 1023 10 16 0.00 0.00
1:35 pm 13:35 Sunny 56 13.4 4 -15.3 12 12 SW 9 15 30.18 1022 10 16 0.00 0.00
1:55 pm 13:55 Sunny 57 14.1 3 -15.9 11 11 W 10 17 30.16 1021 10 16 0.00 0.00
2:15 pm 14:15 Sunny 58 14.3 3 -16.3 11 11 W 10 17 30.16 1021 10 16 0.00 0.00
2:35 pm 14:35 Sunny 58 14.4 3 -16.1 11 11 W 10 17 30.15 1021 10 16 0.00 0.00
2:55 pm 14:55 Sunny 59 14.9 3 -15.9 10 10 W 9 15 30.14 1021 10 16 0.00 0.00
3:15 pm 15:15 Sunny 60 15.7 4 -15.7 10 10 W 6 9 30.13 1020 10 16 0.00 0.00
3:35 pm 15:35 Sunny 61 15.9 3 -16.1 10 10 W 12 19 30.12 1020 10 16 0.00 0.00
3:55 pm 15:55 Sunny 61 16 2 -16.5 9 9 WNW 13 20 30.12 1020 10 16 0.00 0.00
4:15 pm 16:15 Sunny 61 16.1 2 -16.4 9 9 W 8 13 30.11 1019 10 16 0.00 0.00
4:35 pm 16:35 Sunny 61 16.2 2 -16.5 9 9 W 10 17 30.09 1019 10 16 0.00 0.00
4:55 pm 16:55 Sunny 61 16.1 3 -16.1 10 10 WNW 10 17 30.10 1019 10 16 0.00 0.00
5:15 pm 17:15 Sunny 61 15.9 4 -15.3 10 10 WNW 10 17 30.09 1019 10 16 0.00 0.00
5:35 pm 17:35 Sunny 59 14.8 5 -14.9 11 11 WNW 7 11 30.10 1019 10 16 0.00 0.00
5:55 pm 17:55 Sunny 55 12.7 5 -15 13 13 W 7 11 30.12 1020 10 16 0.00 0.00
6:15 pm 18:15 Sunny 52 11 4 -15.4 14 14 W 7 11 30.13 1020 10 16 0.00 0.00
6:35 pm 18:35 Clear 46 7.6 3 -15.9 17 17 WSW 7 11 30.16 1021 10 16 0.00 0.00
6:55 pm 18:55 Clear 42 5.5 3 -16.1 20 20 W 6 9 30.17 1022 10 16 0.00 0.00
7:15 pm 19:15 Clear 45 7.1 4 -15.4 19 19 WSW 5 7 30.17 1022 10 16 0.00 0.00
7:35 pm 19:35 Clear 40 4.5 4 -15.5 22 22 WSW 7 11 30.20 1023 10 16 0.00 0.00
7:55 pm 19:55 Clear 35 1.8 4 -15.8 26 26 W 10 17 30.23 1024 10 16 0.00 0.00
8:15 pm 20:15 Clear 35 1.5 4 -15.4 27 27 W 10 17 30.23 1024 10 16 0.00 0.00
8:35 pm 20:35 Clear 33 0.3 3 -16 29 29 W 8 13 30.24 1024 10 16 0.00 0.00
8:55 pm 20:55 Clear 28 -2.2 0 -17.9 29 29 NW 5 7 30.27 1025 10 16 0.00 0.00
9:15 pm 21:15 Clear 25 -4 -1 -18.5 32 32 NW 6 9 30.29 1026 10 16 0.00 0.00
9:35 pm 21:35 Clear 26 -3.1 1 -17.1 33 33 NNW 8 13 30.30 1026 10 16 0.00 0.00
9:55 pm 21:55 Clear 25 -4 0 -17.6 34 34 NW 7 11 30.31 1026 7 11 0.00 0.00
10:15 pm 22:15 Clear 24 -4.3 1 -17.4 36 36 NW 6 9 30.31 1026 10 16 0.00 0.00
10:35 pm 22:35 Clear 23 -4.8 1 -17.1 38 38 WNW 6 9 30.33 1027 10 16 0.00 0.00
10:55 pm 22:55 Clear 22 -5.7 1 -17 41 41 WNW 7 11 30.33 1027 10 16 0.00 0.00
11:15 pm 23:15 Clear 21 -6.1 2 -16.8 43 43 WNW 7 11 30.34 1027 10 16 0.00 0.00
11:35 pm 23:35 Clear 24 -4.2 4 -15.7 41 41 W 7 11 30.31 1026 10 16 0.00 0.00
11:55 pm 23:55 Clear 23 -4.9 4 -15.8 43 43 W 8 13 30.32 1027 10 16 0.00 0.00

Powered by AerisWeather